[[{"header":{"parameterUnit":"m.s-1","parameterCategory":1,"la1":30.2991,"la2":30.254,"lo1":-89.0895,"lo2":-89.0444,"dy":0.0017,"dx":0.0017,"nx":28,"ny":28,"refTime":"2024-08-09T15:00:00:Z","depth":0,"parameterNumber":2,"parameterNumberName":"U-component_of_WINDS"},"data":[0,0,0,0,0,0,0,0,0,0,0,0,0,0,0,0,0,0,0,0,0,0,0,0,0,0,0,0,0,0,0,0,0,0,0,0,0,0,0,0,0,0,0,0,0,0,0,0,0,0,0,0,0,0,0,0,0,0,2.329,2.3291,0,2.3376,2.3377,2.3378,2.3355,2.3353,2.3352,2.335,2.3442,2.3446,2.345,0,0,0,0,0,0,0,0,0,0,0,0,0,2.3114,2.3117,2.329,2.3291,2.3292,2.3376,2.3377,2.3378,2.3355,2.3353,2.3351,2.3349,2.3441,2.3446,2.3451,0,0,0,0,0,0,0,0,0,0,0,0,0,2.3194,2.3118,2.329,2.3291,2.3292,2.3375,2.3377,2.3378,2.3356,2.3353,2.3351,2.3348,2.344,2.3445,2.3451,2.3541,0,0,2.347,2.3473,0,0,0,0,0,0,0,0,2.3189,2.3201,2.329,2.3291,2.3292,2.3352,2.3348,2.3433,2.3357,2.3332,2.335,2.3347,2.3415,2.3423,2.3445,2.3545,2.3549,2.3471,2.3474,2.3477,2.3479,0,0,0,0,0,0,0,2.3184,2.3197,2.3324,2.3291,2.3293,2.3289,2.3298,2.3364,2.3387,2.3334,2.3332,2.3342,2.3415,2.3439,2.3447,2.355,2.347,2.3476,2.348,2.3482,2.3732,2.3735,0,0,0,0,0,0,2.3177,2.3192,2.3322,2.3327,2.3233,2.3295,2.3304,2.3336,2.3386,2.3391,2.3345,2.3341,2.343,2.344,2.345,2.356,2.3477,2.3483,2.3486,2.3729,2.3733,2.3736,0,0,0,0,0,0,2.3173,2.3188,2.3318,2.3259,2.3275,2.33,2.3336,2.3339,2.3362,2.3394,2.3399,2.3364,2.3428,2.3441,2.3519,2.3563,2.3485,2.3491,2.3726,2.373,2.3734,2.3779,0,0,0,0,0,0,2.3168,2.3187,2.322,2.326,2.3279,2.3384,2.3338,2.3342,2.3372,2.3369,2.3414,2.3419,2.3427,2.351,2.3525,2.357,2.3496,2.3722,2.3728,2.3733,2.3774,2.3785,2.3794,0,0,0,0,0,2.3162,2.3229,2.3221,2.3237,2.3319,2.3386,2.3397,2.3404,2.3376,2.341,2.3431,2.3418,2.3555,2.3518,2.3535,2.3582,2.3719,2.3726,2.3733,2.3769,2.3782,2.3794,0,0,0,0,0,0,2.3194,2.3234,2.3226,2.3308,2.3344,2.3382,2.3425,2.3417,2.3462,2.3457,2.3465,2.3475,2.3555,2.3576,2.3534,2.3673,2.3633,2.3644,2.3656,2.3669,2.3678,2.3672,2.3501,0,0,0,0,0,2.3211,2.326,2.3293,2.3362,2.3381,2.34,2.3429,2.3431,2.3469,2.3485,2.3511,2.355,2.3602,2.3636,2.3686,2.3777,2.3788,2.3818,2.3828,2.3836,2.3845,2.3898,2.3912,2.3758,2.3758,2.3758,0,0,2.3246,2.3274,2.3304,2.337,2.3397,2.3451,2.3413,2.347,2.351,2.3494,2.3569,2.359,2.3634,2.3719,2.3758,2.3739,2.389,2.3844,2.3851,2.3856,2.3906,2.3921,2.3934,2.3763,2.3762,2.3761,0,0,2.3337,2.3362,2.3424,2.3453,2.3495,2.3508,2.3523,2.3563,2.3576,2.3651,2.3641,2.369,2.3779,2.3812,2.384,2.3946,2.3937,2.3962,2.4015,2.4066,2.4078,2.4089,2.4129,2.4143,2.3971,2.3971,2.3972,0,2.3375,2.3453,2.3457,2.3515,2.3546,2.3533,2.3597,2.3625,2.3683,2.3705,2.3683,2.3796,2.3825,2.3919,2.3945,2.3967,2.3987,2.3957,2.4076,2.4087,2.4097,2.4135,2.415,2.3974,2.3974,2.3974,2.3974,0,2.3499,2.3554,2.3599,2.3654,2.3689,2.375,2.3766,2.3802,2.3802,2.3818,2.3896,2.393,2.3988,2.401,2.401,2.4105,2.4093,2.4073,2.4034,2.4114,2.4151,2.4165,2.3979,2.3978,2.3977,2.3976,0,0,2.3612,2.367,2.3687,2.3713,2.376,2.3803,2.3865,2.392,2.3952,2.3992,2.4046,2.4123,2.4106,2.4138,2.4142,2.4187,2.4272,2.4163,2.4164,2.4183,2.4382,2.4398,2.4414,2.4266,2.4269,2.4271,2.4379,0,2.3709,2.3816,2.3823,2.3921,2.3973,2.3963,2.4017,2.4053,2.4071,2.4119,2.4139,2.4194,2.4166,2.4186,2.4229,2.4253,2.4313,2.4245,2.4319,2.4321,2.4309,2.4433,2.4449,2.4549,2.4393,2.4396,2.4397,0,2.3835,2.388,2.3983,2.4025,2.4047,2.4095,2.4148,2.4193,2.4236,2.4245,2.4282,2.4281,2.4348,2.4306,2.4399,2.4353,2.4384,2.44,2.4404,2.4412,2.4365,2.4446,2.4581,2.4597,2.4419,2.4418,2.4416,0,2.391,2.3995,2.4069,2.4091,2.4141,2.4176,2.4199,2.4238,2.4272,2.4319,2.4341,2.4396,2.4426,2.4469,2.4484,2.4451,2.4578,2.4536,2.459,2.459,2.4617,2.4616,2.4761,2.4635,2.4635,2.4635,2.4634,0,2.4018,2.4082,2.4103,2.4148,2.4221,2.4229,2.4302,2.4323,2.4358,2.441,2.4404,2.4453,2.4468,2.452,2.4532,2.461,2.4623,2.4634,2.4637,2.4636,2.4634,2.4657,2.4651,2.4639,2.4638,2.4637,2.4636,0,2.4113,2.413,2.4209,2.4251,2.4263,2.4315,2.4352,2.4397,2.4413,2.4479,2.4494,2.4522,2.4583,2.4602,2.4676,2.4684,2.4775,2.477,2.476,2.4761,2.4814,2.4809,2.4979,2.5003,2.4861,2.4862,2.4863,0,2.4181,2.4231,2.4278,2.4311,2.4335,2.4389,2.4423,2.4435,2.4471,2.4524,2.4564,2.4624,2.4673,2.4772,2.48,2.4857,2.4855,2.4911,2.4864,2.4862,2.4858,2.4856,2.4862,2.492,2.4922,2.4923,2.4924,0,2.4302,2.4308,2.4357,2.441,2.4451,2.4493,2.4534,2.4562,2.458,2.4622,2.4684,2.4722,2.4798,2.4859,2.4917,2.4944,2.4938,2.4938,2.4954,2.4954,2.4946,2.4953,2.4786,2.4935,2.4933,2.4933,2.4932,2.4932,2.4387,2.4431,2.4471,2.4527,2.4559,2.4598,2.4643,2.4666,2.4717,2.4779,2.4783,2.4851,2.4895,2.4973,2.5003,2.5058,2.5042,2.5064,2.507,2.5076,2.5081,2.4937,2.5068,2.5068,2.5068,2.5067,2.5067,0,2.4508,2.4534,2.4585,2.4643,2.4687,2.4676,2.4722,2.4761,2.482,2.4861,2.4909,2.4982,2.5042,2.5075,2.5135,2.5173,2.5173,2.5189,2.5187,2.5194,2.5091,2.5072,2.5189,2.5189,2.5189,2.5189,2.5189,2.5189,2.4577,2.4651,2.4663,2.4755,2.4781,2.4846,2.4874,2.4911,2.4943,2.5025,2.5074,2.5095,2.5133,2.5197,2.5252,2.5261,2.5284,2.5303,2.531,2.5213,2.5201,2.5189,2.5171,2.5307,2.5307,2.5408,2.5409,2.541]},{"header":{"parameterUnit":"m.s-1","parameterCategory":1,"la1":30.2991,"la2":30.254,"lo1":-89.0895,"lo2":-89.0444,"dy":0.0017,"dx":0.0017,"nx":28,"ny":28,"refTime":"2024-08-09T15:00:00:Z","depth":0,"parameterNumber":3,"parameterNumberName":"V-component_of_WINDS"},"data":[0,0,0,0,0,0,0,0,0,0,0,0,0,0,0,0,0,0,0,0,0,0,0,0,0,0,0,0,0,0,0,0,0,0,0,0,0,0,0,0,0,0,0,0,0,0,0,0,0,0,0,0,0,0,0,0,0,0,-1.3003,-1.3003,0,-1.2946,-1.2946,-1.2945,-1.2985,-1.2987,-1.2988,-1.299,-1.2929,-1.2926,-1.2922,0,0,0,0,0,0,0,0,0,0,0,0,0,-1.3145,-1.3142,-1.3003,-1.3003,-1.3002,-1.2947,-1.2946,-1.2945,-1.2984,-1.2987,-1.2989,-1.2991,-1.293,-1.2926,-1.2922,0,0,0,0,0,0,0,0,0,0,0,0,0,-1.3085,-1.3141,-1.3003,-1.3015,-1.3015,-1.2947,-1.2946,-1.2945,-1.2984,-1.2987,-1.2989,-1.2992,-1.2931,-1.2926,-1.2922,-1.2837,0,0,-1.2906,-1.2904,0,0,0,0,0,0,0,0,-1.3089,-1.308,-1.3014,-1.3014,-1.3014,-1.2976,-1.2973,-1.2909,-1.2983,-1.2996,-1.299,-1.2993,-1.2942,-1.2936,-1.292,-1.2835,-1.2832,-1.2906,-1.2903,-1.2901,-1.29,0,0,0,0,0,0,0,-1.3093,-1.3083,-1.2981,-1.3013,-1.3013,-1.3023,-1.3017,-1.2961,-1.2954,-1.2995,-1.2998,-1.2991,-1.2943,-1.2924,-1.2919,-1.2831,-1.2906,-1.2902,-1.2899,-1.2897,-1.2678,-1.2675,0,0,0,0,0,0,-1.3096,-1.3086,-1.2983,-1.2979,-1.3059,-1.3018,-1.3012,-1.2985,-1.2955,-1.2953,-1.2988,-1.2993,-1.2932,-1.2924,-1.2917,-1.2819,-1.2901,-1.2896,-1.2893,-1.2681,-1.2678,-1.2674,0,0,0,0,0,0,-1.3099,-1.3086,-1.2985,-1.3033,-1.3021,-1.3013,-1.2983,-1.2983,-1.2965,-1.295,-1.2949,-1.2971,-1.2933,-1.2924,-1.2858,-1.2817,-1.2894,-1.289,-1.2684,-1.268,-1.2676,-1.2622,0,0,0,0,0,0,-1.3103,-1.3087,-1.3055,-1.3032,-1.3018,-1.2927,-1.298,-1.298,-1.2956,-1.2961,-1.2934,-1.2932,-1.2935,-1.2865,-1.2853,-1.2812,-1.2886,-1.2688,-1.2682,-1.2677,-1.2627,-1.2616,-1.2607,0,0,0,0,0,-1.3108,-1.3041,-1.3053,-1.3041,-1.2978,-1.2925,-1.2917,-1.2922,-1.2953,-1.2921,-1.2912,-1.2933,-1.2824,-1.2858,-1.2845,-1.2802,-1.2691,-1.2684,-1.2678,-1.2632,-1.2618,-1.2607,0,0,0,0,0,0,-1.3057,-1.3038,-1.3052,-1.2975,-1.2952,-1.2931,-1.2891,-1.2907,-1.2874,-1.288,-1.2887,-1.2881,-1.2813,-1.28,-1.2839,-1.2721,-1.2762,-1.2753,-1.2731,-1.2718,-1.2708,-1.2713,-1.2882,0,0,0,0,0,-1.3037,-1.2996,-1.2981,-1.2915,-1.2903,-1.2899,-1.2876,-1.2882,-1.2858,-1.2848,-1.2834,-1.2809,-1.277,-1.2743,-1.2705,-1.2625,-1.2621,-1.2589,-1.2579,-1.2571,-1.2563,-1.2523,-1.2509,-1.2653,-1.2653,-1.2654,0,0,-1.2995,-1.298,-1.2953,-1.2904,-1.2887,-1.2845,-1.289,-1.2842,-1.2811,-1.284,-1.2779,-1.2768,-1.274,-1.2668,-1.2635,-1.2655,-1.2522,-1.2562,-1.2556,-1.2553,-1.2515,-1.2501,-1.2489,-1.2649,-1.265,-1.2651,0,0,-1.2898,-1.2881,-1.2826,-1.2808,-1.2782,-1.2781,-1.2767,-1.2745,-1.274,-1.2679,-1.2701,-1.2663,-1.2594,-1.2575,-1.2556,-1.2454,-1.2473,-1.2442,-1.2389,-1.235,-1.2338,-1.2328,-1.2295,-1.2282,-1.2434,-1.2434,-1.2434,0,-1.2849,-1.2786,-1.2795,-1.2747,-1.2726,-1.2752,-1.2697,-1.2679,-1.2641,-1.2626,-1.265,-1.2566,-1.2549,-1.2474,-1.245,-1.2433,-1.2419,-1.2445,-1.2339,-1.233,-1.232,-1.2289,-1.2276,-1.243,-1.2431,-1.2431,-1.2431,0,-1.2729,-1.2685,-1.2644,-1.261,-1.2584,-1.2532,-1.2533,-1.2506,-1.2515,-1.2512,-1.245,-1.2431,-1.2392,-1.2375,-1.2382,-1.2301,-1.2315,-1.2339,-1.2381,-1.2303,-1.2274,-1.2261,-1.2425,-1.2427,-1.2428,-1.2428,0,0,-1.2597,-1.257,-1.2555,-1.2541,-1.2516,-1.2482,-1.2432,-1.2396,-1.2373,-1.2347,-1.2307,-1.2249,-1.2272,-1.225,-1.2256,-1.2222,-1.2146,-1.225,-1.2249,-1.2233,-1.206,-1.2044,-1.2029,-1.2158,-1.2156,-1.2154,-1.2063,0,-1.25,-1.2415,-1.2423,-1.2342,-1.2304,-1.2329,-1.2286,-1.2266,-1.2262,-1.2228,-1.2223,-1.2183,-1.2215,-1.2203,-1.2169,-1.2162,-1.2112,-1.2169,-1.2122,-1.212,-1.213,-1.2013,-1.1996,-1.1911,-1.2051,-1.2049,-1.2048,0,-1.2376,-1.2348,-1.2264,-1.2248,-1.2232,-1.2193,-1.2162,-1.2129,-1.2107,-1.2107,-1.2084,-1.2097,-1.2048,-1.2091,-1.2025,-1.2063,-1.2045,-1.2039,-1.2035,-1.2032,-1.208,-1.201,-1.1883,-1.1871,-1.2029,-1.203,-1.2032,0,-1.2291,-1.2232,-1.2176,-1.2163,-1.2141,-1.2114,-1.2103,-1.2085,-1.2063,-1.2035,-1.2022,-1.1988,-1.197,-1.1944,-1.1948,-1.1978,-1.1882,-1.1923,-1.1881,-1.1881,-1.186,-1.1862,-1.1731,-1.1845,-1.1845,-1.1845,-1.1845,0,-1.2184,-1.2132,-1.2138,-1.2103,-1.2047,-1.2056,-1.2,-1.1993,-1.1976,-1.1941,-1.196,-1.1927,-1.1933,-1.19,-1.1902,-1.1849,-1.1839,-1.1839,-1.184,-1.1838,-1.1838,-1.1827,-1.1834,-1.1842,-1.1842,-1.1843,-1.1844,0,-1.208,-1.2082,-1.2022,-1.2008,-1.2003,-1.1962,-1.195,-1.1918,-1.1916,-1.1871,-1.1861,-1.1858,-1.182,-1.1821,-1.1777,-1.1779,-1.1715,-1.1722,-1.1722,-1.1725,-1.1683,-1.1688,-1.1542,-1.1525,-1.1647,-1.1646,-1.1645,0,-1.2012,-1.1974,-1.1956,-1.1935,-1.1924,-1.1888,-1.1867,-1.1875,-1.1853,-1.1827,-1.1799,-1.1763,-1.1735,-1.1674,-1.1667,-1.1635,-1.1643,-1.1594,-1.1638,-1.1638,-1.1645,-1.1648,-1.1646,-1.1586,-1.1584,-1.1583,-1.1582,0,-1.1893,-1.1896,-1.1866,-1.1837,-1.1812,-1.1789,-1.1768,-1.1749,-1.1755,-1.1729,-1.1692,-1.167,-1.1627,-1.1592,-1.1562,-1.1551,-1.1568,-1.1569,-1.1558,-1.1556,-1.1559,-1.156,-1.1701,-1.1572,-1.1573,-1.1574,-1.1574,-1.1575,-1.1807,-1.1775,-1.1759,-1.1725,-1.1711,-1.1691,-1.1661,-1.1657,-1.1626,-1.1593,-1.16,-1.1558,-1.154,-1.1502,-1.1488,-1.1457,-1.1474,-1.1457,-1.1453,-1.145,-1.1446,-1.1563,-1.1451,-1.1451,-1.1451,-1.1451,-1.1452,0,-1.1691,-1.1682,-1.1651,-1.1623,-1.1597,-1.1616,-1.1594,-1.1571,-1.1535,-1.1518,-1.1491,-1.1449,-1.1416,-1.1408,-1.1377,-1.1353,-1.1361,-1.1345,-1.1348,-1.1346,-1.1431,-1.1445,-1.134,-1.134,-1.134,-1.134,-1.134,-1.134,-1.1627,-1.1576,-1.1578,-1.152,-1.1511,-1.1473,-1.1459,-1.1442,-1.1428,-1.1382,-1.1355,-1.1351,-1.1337,-1.1306,-1.1277,-1.1276,-1.1264,-1.1246,-1.1248,-1.1328,-1.1339,-1.135,-1.1363,-1.1243,-1.1243,-1.1165,-1.1165,-1.1164]}]]